QPF
0.01 0.01 0.01 0.01 0.01 0.02 0.03 0.04 0.04 0.01 0.01 0.02 0.02 0.02 0.01 0.03 0.04 0.03 0.03 0.04 0.03 0.04 0.05 0.05 0.04 0.05 0.05 0.06 0.07 0.08 0.08 0.07 0.06 0.06 0.10 0.13 0.12 0.12
0.01 0.01 0.01 0.02 0.02 0.02 0.03 0.04 0.05 0.04 0.02 0.01 0.02 0.02 0.02 0.02 0.02 0.02 0.02 0.03 0.04 0.05 0.05 0.05 0.04 0.04 0.04 0.04 0.04 0.04 0.05 0.05 0.04 0.04 0.05 0.05 0.06 0.06
0.03 0.02 0.02 0.03 0.02 0.02 0.03 0.04 0.04 0.05 0.04 0.01 0.02 0.02 0.02 0.02 0.02 0.02 0.02 0.03 0.06 0.07 0.06 0.07 0.07 0.06 0.05 0.04 0.03 0.03 0.03 0.04 0.04 0.04 0.04 0.03 0.04 0.04
0.03 0.03 0.02 0.03 0.03 0.03 0.03 0.03 0.04 0.05 0.04 0.03 0.03 0.03 0.03 0.02 0.02 0.02 0.03 0.04 0.07 0.10 0.09 0.11 0.09 0.07 0.05 0.04 0.03 0.02 0.03 0.03 0.03 0.04 0.05 0.05 0.04 0.04
0.04 0.03 0.03 0.04 0.03 0.02 0.03 0.03 0.03 0.04 0.05 0.06 0.05 0.05 0.04 0.04 0.04 0.04 0.04 0.04 0.07 0.10 0.16 0.12 0.08 0.06 0.05 0.04 0.03 0.03 0.03 0.04 0.05 0.06 0.08 0.09 0.08 0.07
0.03 0.03 0.03 0.02 0.02 0.02 0.02 0.03 0.04 0.05 0.05 0.05 0.06 0.05 0.06 0.07 0.07 0.06 0.05 0.05 0.05 0.06 0.07 0.09 0.09 0.09 0.07 0.05 0.04 0.04 0.03 0.03 0.04 0.06 0.08 0.10 0.10 0.07
0.02 0.01 0.02 0.02 0.02 0.03 0.03 0.03 0.05 0.04 0.04 0.05 0.05 0.05 0.05 0.06 0.06 0.06 0.06 0.05 0.05 0.05 0.05 0.07 0.10 0.10 0.09 0.07 0.05 0.05 0.04 0.04 0.04 0.04 0.05 0.08 0.11 0.09
0.01 0.01 0.01 0.02 0.02 0.03 0.04 0.04 0.04 0.04 0.03 0.03 0.04 0.04 0.04 0.04 0.04 0.05 0.05 0.04 0.05 0.05 0.05 0.06 0.08 0.10 0.11 0.09 0.07 0.06 0.05 0.04 0.03 0.03 0.03 0.04 0.07 0.11
0.01 0.01 0.01 0.01 0.02 0.02 0.03 0.04 0.03 0.04 0.04 0.03 0.03 0.02 0.03 0.04 0.04 0.04 0.03 0.03 0.03 0.04 0.04 0.04 0.06 0.07 0.08 0.09 0.08 0.06 0.05 0.04 0.03 0.02 0.03 0.03 0.03 0.04
0.01 0.01 0.01 0.01 0.02 0.03 0.03 0.02 0.02 0.02 0.03 0.03 0.02 0.02 0.04 0.05 0.04 0.04 0.04 0.04 0.03 0.04 0.03 0.03 0.04 0.04 0.05 0.06 0.06 0.06 0.05 0.04 0.03 0.02 0.02 0.02 0.02 0.03
0.02 0.02 0.02 0.02 0.04 0.05 0.03 0.02 0.02 0.02 0.03 0.03 0.03 0.03 0.04 0.06 0.06 0.06 0.05 0.03 0.03 0.04 0.04 0.03 0.02 0.03 0.03 0.03 0.03 0.03 0.03 0.03 0.03 0.03 0.02 0.02 0.02 0.02
0.02 0.02 0.03 0.03 0.04 0.06 0.05 0.04 0.03 0.03 0.03 0.03 0.02 0.03 0.03 0.03 0.03 0.04 0.05 0.04 0.03 0.03 0.04 0.03 0.02 0.02 0.02 0.02 0.02 0.02 0.02 0.02 0.02 0.02 0.02 0.01 0.02 0.01
0.02 0.02 0.02 0.03 0.04 0.05 0.05 0.04 0.04 0.05 0.05 0.04 0.03 0.04 0.03 0.03 0.03 0.03 0.03 0.03 0.03 0.02 0.02 0.01 0.01 0.01 0.02 0.02 0.02 0.02 0.01 0.01 0.02 0.01 0.01 0.02 0.02 0.02
0.03 0.03 0.04 0.04 0.05 0.07 0.07 0.05 0.05 0.06 0.06 0.05 0.04 0.04 0.04 0.03 0.03 0.02 0.02 0.02 0.02 0.02 0.03 0.02 0.02 0.01 0.01 0.01 0.01 0.01 0.01 0.01 0.01 0.01 0.01 0.02 0.02 0.03
0.03 0.04 0.05 0.05 0.04 0.05 0.09 0.10 0.08 0.06 0.05 0.04 0.03 0.04 0.05 0.04 0.03 0.03 0.03 0.02 0.02 0.01 0.01 0.02 0.02 0.01 0.01 0.01 0.00 0.00 0.01 0.00 0.00 0.01 0.01 0.01 0.01 0.02
0.03 0.03 0.04 0.05 0.05 0.04 0.05 0.08 0.08 0.06 0.05 0.04 0.03 0.04 0.04 0.04 0.04 0.03 0.03 0.02 0.02 0.02 0.02 0.02 0.02 0.02 0.02 0.01 0.01 0.01 0.00 0.00 0.00 0.01 0.03 0.03 0.03 0.03
0.03 0.03 0.03 0.03 0.03 0.03 0.03 0.03 0.05 0.05 0.05 0.04 0.03 0.03 0.03 0.02 0.02 0.02 0.02 0.02 0.02 0.02 0.02 0.03 0.03 0.03 0.02 0.02 0.01 0.01 0.01 0.00 0.01 0.02 0.04 0.04 0.04 0.03
0.03 0.02 0.03 0.02 0.02 0.02 0.02 0.02 0.03 0.04 0.04 0.04 0.03 0.03 0.03 0.02 0.02 0.02 0.02 0.02 0.02 0.02 0.02 0.02 0.02 0.02 0.02 0.01 0.01 0.00 0.01 0.01 0.00 0.01 0.02 0.03 0.03 0.03
0.03 0.02 0.02 0.02 0.01 0.02 0.03 0.04 0.04 0.04 0.04 0.04 0.04 0.04 0.03 0.03 0.02 0.02 0.02 0.02 0.02 0.01 0.01 0.01 0.01 0.01 0.01 0.01 0.00 0.00 0.00 0.00 0.01 0.01 0.02 0.02 0.03 0.03
0.03 0.03 0.03 0.03 0.03 0.02 0.03 0.03 0.03 0.04 0.05 0.04 0.04 0.04 0.03 0.03 0.04 0.04 0.05 0.05 0.04 0.02 0.02 0.01 0.01 0.01 0.01 0.01 0.01 0.00 0.00 0.00 0.01 0.01 0.01 0.02 0.03 0.03
0.03 0.03 0.04 0.04 0.04 0.03 0.04 0.04 0.04 0.04 0.04 0.04 0.04 0.04 0.05 0.05 0.05 0.05 0.05 0.04 0.03 0.02 0.02 0.01 0.02 0.02 0.02 0.02 0.02 0.01 0.00 0.01 0.01 0.01 0.01 0.02 0.03 0.03
0.03 0.03 0.03 0.04 0.04 0.05 0.05 0.05 0.05 0.05 0.05 0.06 0.05 0.05 0.05 0.06 0.05 0.05 0.04 0.04 0.02 0.02 0.01 0.01 0.02 0.02 0.02 0.02 0.02 0.02 0.01 0.01 0.02 0.02 0.02 0.02 0.02 0.04
0.05 0.04 0.04 0.04 0.05 0.06 0.08 0.09 0.08 0.08 0.07 0.06 0.06 0.06 0.06 0.06 0.06 0.06 0.06 0.04 0.03 0.02 0.02 0.01 0.01 0.01 0.01 0.01 0.02 0.02 0.02 0.02 0.03 0.03 0.03 0.03 0.03 0.04
MSLP
1017.13 1017.43 1017.75 1018.06 1018.30 1018.45 1018.48 1018.39 1018.19 1017.90 1017.56 1017.19 1016.82 1016.49 1016.19 1015.94 1015.73 1015.56 1015.43 1015.34 1015.29 1015.28 1015.30 1015.35 1015.40 1015.43 1015.42 1015.34 1015.19 1014.96 1014.67 1014.34 1014.02 1013.74 1013.53 1013.42 1013.42 1013.53
1016.43 1016.71 1017.00 1017.30 1017.55 1017.73 1017.82 1017.81 1017.71 1017.53 1017.29 1017.03 1016.76 1016.50 1016.26 1016.04 1015.85 1015.68 1015.55 1015.45 1015.39 1015.37 1015.38 1015.42 1015.46 1015.46 1015.42 1015.30 1015.10 1014.80 1014.44 1014.04 1013.63 1013.26 1012.95 1012.74 1012.63 1012.63
1015.76 1015.98 1016.24 1016.51 1016.76 1016.96 1017.09 1017.15 1017.14 1017.06 1016.94 1016.79 1016.62 1016.45 1016.28 1016.12 1015.96 1015.82 1015.70 1015.60 1015.54 1015.50 1015.51 1015.52 1015.54 1015.52 1015.44 1015.28 1015.03 1014.68 1014.25 1013.78 1013.29 1012.83 1012.42 1012.10 1011.87 1011.74
1015.11 1015.30 1015.52 1015.75 1015.98 1016.18 1016.34 1016.45 1016.51 1016.52 1016.50 1016.45 1016.39 1016.31 1016.22 1016.12 1016.01 1015.90 1015.80 1015.72 1015.66 1015.62 1015.61 1015.60 1015.59 1015.54 1015.43 1015.23 1014.93 1014.53 1014.05 1013.51 1012.95 1012.41 1011.90 1011.48 1011.13 1010.88
1014.48 1014.63 1014.81 1015.02 1015.23 1015.42 1015.60 1015.74 1015.85 1015.93 1015.98 1016.02 1016.04 1016.04 1016.02 1015.99 1015.94 1015.87 1015.81 1015.74 1015.69 1015.66 1015.63 1015.61 1015.58 1015.50 1015.35 1015.11 1014.77 1014.33 1013.81 1013.22 1012.60 1011.98 1011.40 1010.88 1010.44 1010.09
1013.80 1013.93 1014.10 1014.28 1014.47 1014.67 1014.85 1015.01 1015.15 1015.27 1015.38 1015.47 1015.55 1015.62 1015.67 1015.69 1015.70 1015.68 1015.65 1015.62 1015.59 1015.57 1015.55 1015.52 1015.46 1015.36 1015.19 1014.92 1014.55 1014.09 1013.53 1012.91 1012.26 1011.59 1010.96 1010.38 1009.87 1009.45
1013.01 1013.15 1013.31 1013.49 1013.68 1013.87 1014.06 1014.23 1014.39 1014.54 1014.68 1014.81 1014.94 1015.05 1015.14 1015.22 1015.28 1015.31 1015.33 1015.34 1015.34 1015.34 1015.33 1015.31 1015.25 1015.14 1014.95 1014.68 1014.30 1013.82 1013.26 1012.63 1011.96 1011.29 1010.63 1010.02 1009.49 1009.04
1012.07 1012.23 1012.40 1012.60 1012.80 1013.00 1013.20 1013.39 1013.56 1013.73 1013.89 1014.04 1014.20 1014.34 1014.47 1014.59 1014.69 1014.77 1014.84 1014.90 1014.94 1014.97 1014.99 1014.99 1014.94 1014.84 1014.66 1014.40 1014.03 1013.57 1013.03 1012.43 1011.78 1011.13 1010.50 1009.91 1009.40 1008.97
1010.99 1011.16 1011.36 1011.58 1011.81 1012.03 1012.25 1012.46 1012.65 1012.83 1013.01 1013.18 1013.35 1013.52 1013.68 1013.83 1013.97 1014.10 1014.21 1014.31 1014.40 1014.47 1014.53 1014.56 1014.55 1014.48 1014.34 1014.11 1013.79 1013.38 1012.89 1012.34 1011.76 1011.17 1010.60 1010.08 1009.63 1009.28
1009.80 1009.99 1010.21 1010.46 1010.71 1010.97 1011.22 1011.45 1011.67 1011.87 1012.06 1012.25 1012.44 1012.62 1012.80 1012.98 1013.15 1013.31 1013.46 1013.61 1013.74 1013.86 1013.97 1014.04 1014.08 1014.06 1013.98 1013.82 1013.57 1013.24 1012.85 1012.40 1011.91 1011.43 1010.96 1010.54 1010.19 1009.93
1008.61 1008.80 1009.02 1009.29 1009.56 1009.85 1010.12 1010.38 1010.62 1010.85 1011.07 1011.28 1011.48 1011.68 1011.88 1012.08 1012.27 1012.45 1012.64 1012.81 1012.98 1013.15 1013.30 1013.43 1013.53 1013.58 1013.58 1013.50 1013.36 1013.15 1012.87 1012.54 1012.19 1011.83 1011.50 1011.20 1010.97 1010.82
1007.51 1007.67 1007.89 1008.14 1008.42 1008.72 1009.01 1009.29 1009.56 1009.81 1010.05 1010.28 1010.50 1010.71 1010.93 1011.14 1011.34 1011.54 1011.74 1011.94 1012.13 1012.33 1012.52 1012.71 1012.87 1013.00 1013.09 1013.13 1013.10 1013.02 1012.88 1012.70 1012.50 1012.28 1012.09 1011.93 1011.82 1011.79
1006.59 1006.70 1006.87 1007.09 1007.35 1007.63 1007.92 1008.20 1008.48 1008.75 1009.01 1009.25 1009.49 1009.72 1009.95 1010.16 1010.37 1010.58 1010.78 1010.98 1011.19 1011.41 1011.64 1011.87 1012.09 1012.30 1012.49 1012.64 1012.74 1012.79 1012.80 1012.77 1012.71 1012.64 1012.58 1012.55 1012.57 1012.64
1005.88 1005.92 1006.02 1006.18 1006.38 1006.61 1006.87 1007.13 1007.40 1007.67 1007.94 1008.20 1008.45 1008.70 1008.93 1009.15 1009.36 1009.55 1009.75 1009.95 1010.16 1010.38 1010.63 1010.90 1011.18 1011.46 1011.74 1011.99 1012.21 1012.39 1012.53 1012.64 1012.71 1012.78 1012.84 1012.92 1013.03 1013.18
1005.36 1005.31 1005.32 1005.38 1005.50 1005.66 1005.85 1006.07 1006.31 1006.56 1006.82 1007.09 1007.35 1007.61 1007.85 1008.07 1008.28 1008.47 1008.66 1008.84 1009.04 1009.27 1009.53 1009.82 1010.13 1010.47 1010.82 1011.16 1011.48 1011.77 1012.03 1012.24 1012.43 1012.59 1012.75 1012.91 1013.09 1013.30
1004.96 1004.81 1004.72 1004.68 1004.69 1004.75 1004.86 1005.01 1005.19 1005.42 1005.66 1005.93 1006.20 1006.46 1006.71 1006.94 1007.15 1007.33 1007.51 1007.68 1007.87 1008.09 1008.35 1008.65 1008.99 1009.37 1009.77 1010.17 1010.57 1010.93 1011.27 1011.56 1011.82 1012.05 1012.26 1012.48 1012.70 1012.94
1004.58 1004.34 1004.15 1004.00 1003.90 1003.85 1003.86 1003.93 1004.05 1004.23 1004.46 1004.71 1004.99 1005.26 1005.53 1005.77 1005.98 1006.17 1006.34 1006.51 1006.70 1006.91 1007.16 1007.47 1007.82 1008.22 1008.64 1009.08 1009.51 1009.92 1010.29 1010.62 1010.92 1011.18 1011.42 1011.65 1011.89 1012.15
1004.12 1003.82 1003.53 1003.28 1003.08 1002.93 1002.84 1002.83 1002.89 1003.03 1003.23 1003.48 1003.76 1004.05 1004.34 1004.60 1004.83 1005.03 1005.22 1005.39 1005.57 1005.78 1006.03 1006.34 1006.69 1007.09 1007.51 1007.96 1008.39 1008.81 1009.18 1009.52 1009.81 1010.06 1010.30 1010.52 1010.76 1011.01
1003.53 1003.18 1002.83 1002.51 1002.22 1001.98 1001.82 1001.74 1001.75 1001.86 1002.04 1002.28 1002.57 1002.88 1003.19 1003.48 1003.74 1003.97 1004.17 1004.36 1004.55 1004.77 1005.02 1005.32 1005.67 1006.05 1006.47 1006.89 1007.30 1007.69 1008.04 1008.34 1008.60 1008.83 1009.03 1009.23 1009.45 1009.69
1002.82 1002.44 1002.06 1001.68 1001.34 1001.05 1000.84 1000.72 1000.69 1000.77 1000.94 1001.19 1001.49 1001.82 1002.16 1002.48 1002.77 1003.02 1003.26 1003.47 1003.68 1003.91 1004.17 1004.47 1004.81 1005.17 1005.56 1005.95 1006.32 1006.66 1006.96 1007.21 1007.41 1007.58 1007.74 1007.90 1008.09 1008.32
1002.02 1001.64 1001.25 1000.86 1000.49 1000.18 999.95 999.81 999.77 999.84 1000.01 1000.26 1000.57 1000.92 1001.28 1001.62 1001.94 1002.23 1002.49 1002.73 1002.97 1003.22 1003.49 1003.79 1004.12 1004.47 1004.83 1005.18 1005.49 1005.77 1006.00 1006.18 1006.32 1006.43 1006.53 1006.65 1006.80 1007.00
1001.23 1000.87 1000.48 1000.10 999.75 999.44 999.21 999.07 999.04 999.11 999.28 999.53 999.85 1000.20 1000.57 1000.93 1001.27 1001.58 1001.87 1002.14 1002.40 1002.68 1002.97 1003.28 1003.60 1003.94 1004.26 1004.57 1004.83 1005.05 1005.20 1005.31 1005.37 1005.41 1005.45 1005.51 1005.62 1005.80
1000.55 1000.20 999.84 999.49 999.17 998.89 998.68 998.55 998.53 998.60 998.77 999.02 999.33 999.67 1000.03 1000.39 1000.73 1001.06 1001.36 1001.65 1001.95 1002.25 1002.56 1002.88 1003.21 1003.54 1003.84 1004.11 1004.32 1004.47 1004.56 1004.59 1004.58 1004.55 1004.52 1004.52 1004.58 1004.71
Thickness
5737 5735 5733 5732 5730 5729 5727 5724 5719 5715 5716 5719 5720 5721 5720 5719 5719 5718 5717 5718 5718 5717 5717 5716 5715 5715 5714 5713 5712 5710 5708 5706 5705 5703 5701 5700 5698 5696
5735 5733 5731 5730 5728 5727 5725 5723 5721 5717 5714 5716 5716 5717 5716 5716 5715 5714 5713 5713 5713 5713 5713 5713 5712 5711 5710 5709 5707 5706 5704 5702 5700 5698 5697 5695 5693 5691
5733 5731 5730 5728 5726 5724 5723 5721 5719 5716 5712 5713 5713 5713 5712 5711 5711 5710 5708 5708 5708 5708 5708 5708 5707 5707 5706 5704 5702 5701 5699 5697 5695 5693 5692 5690 5688 5686
5731 5729 5727 5726 5724 5722 5720 5718 5716 5715 5711 5709 5709 5708 5707 5706 5706 5705 5704 5703 5703 5702 5702 5702 5702 5702 5701 5699 5697 5696 5694 5692 5691 5689 5687 5685 5683 5681
5728 5726 5724 5723 5721 5719 5717 5715 5714 5712 5709 5706 5705 5704 5703 5702 5700 5700 5699 5697 5697 5697 5697 5697 5696 5696 5695 5694 5692 5691 5689 5688 5686 5684 5681 5679 5677 5675
5725 5724 5722 5720 5718 5716 5715 5712 5710 5707 5704 5702 5700 5699 5698 5696 5695 5694 5692 5692 5692 5691 5690 5690 5690 5689 5688 5688 5686 5685 5684 5682 5680 5678 5676 5674 5671 5669
5722 5720 5719 5718 5716 5714 5712 5709 5706 5703 5700 5697 5696 5694 5693 5691 5690 5689 5687 5687 5687 5685 5684 5684 5683 5683 5682 5681 5680 5679 5678 5676 5675 5673 5670 5668 5666 5663
5718 5717 5716 5714 5712 5710 5708 5706 5704 5701 5698 5695 5692 5691 5690 5689 5687 5685 5682 5681 5681 5681 5678 5677 5677 5676 5676 5675 5674 5673 5672 5670 5668 5666 5664 5661 5660 5657
5715 5713 5712 5712 5708 5706 5705 5702 5700 5698 5697 5695 5691 5690 5688 5686 5683 5680 5678 5676 5675 5675 5672 5671 5671 5671 5671 5670 5669 5668 5666 5664 5661 5659 5657 5655 5654 5652
5711 5709 5707 5706 5704 5702 5700 5698 5697 5695 5693 5692 5690 5689 5687 5684 5680 5678 5674 5671 5670 5669 5667 5665 5666 5665 5666 5664 5663 5662 5660 5658 5655 5653 5651 5649 5648 5646
5707 5705 5703 5701 5700 5697 5695 5693 5692 5691 5689 5688 5686 5684 5682 5680 5677 5673 5669 5666 5665 5664 5662 5661 5660 5659 5659 5659 5657 5656 5654 5652 5650 5648 5645 5643 5641 5639
5701 5700 5698 5696 5695 5692 5690 5688 5686 5685 5684 5682 5680 5678 5677 5675 5673 5671 5668 5664 5661 5659 5658 5656 5654 5652 5652 5653 5651 5649 5648 5646 5644 5642 5640 5638 5635 5633
5695 5695 5694 5691 5689 5687 5685 5684 5683 5680 5678 5676 5674 5673 5671 5669 5667 5666 5664 5662 5659 5657 5655 5652 5649 5647 5646 5645 5645 5643 5642 5640 5638 5636 5634 5632 5630 5627
5690 5689 5688 5686 5684 5682 5680 5679 5677 5674 5672 5669 5668 5666 5665 5664 5662 5660 5659 5657 5655 5653 5651 5648 5645 5643 5641 5639 5638 5637 5635 5633 5632 5630 5629 5627 5625 5622
5684 5683 5682 5680 5678 5676 5675 5673 5671 5668 5665 5663 5662 5662 5661 5659 5657 5654 5652 5650 5648 5647 5645 5643 5641 5639 5637 5635 5633 5631 5629 5628 5626 5624 5623 5622 5620 5618
5676 5675 5674 5673 5671 5670 5669 5667 5665 5663 5660 5659 5659 5657 5655 5653 5651 5649 5647 5644 5642 5641 5639 5637 5635 5633 5631 5629 5627 5626 5624 5622 5621 5618 5617 5615 5614 5612
5669 5668 5667 5666 5665 5664 5662 5661 5659 5657 5655 5653 5652 5650 5649 5647 5645 5642 5640 5638 5635 5634 5632 5630 5628 5626 5625 5623 5621 5620 5619 5617 5615 5613 5610 5609 5608 5606
5661 5661 5661 5660 5659 5658 5657 5655 5653 5651 5650 5648 5646 5644 5643 5641 5639 5636 5633 5631 5629 5627 5625 5623 5621 5619 5617 5616 5615 5615 5613 5611 5609 5606 5605 5604 5603 5601
5655 5656 5655 5654 5653 5652 5651 5649 5648 5646 5644 5642 5640 5639 5637 5635 5632 5630 5627 5624 5622 5621 5619 5616 5614 5612 5611 5612 5612 5608 5606 5605 5602 5600 5598 5597 5597 5595
5649 5650 5649 5649 5648 5646 5645 5643 5641 5640 5638 5636 5634 5633 5631 5628 5626 5624 5621 5618 5616 5614 5611 5609 5607 5605 5605 5605 5604 5601 5598 5597 5596 5594 5592 5590 5587 5585
5645 5644 5643 5643 5642 5640 5639 5636 5634 5633 5631 5629 5628 5626 5624 5622 5620 5618 5615 5611 5608 5607 5605 5604 5602 5599 5597 5595 5594 5593 5591 5589 5588 5586 5584 5582 5580 5578
5640 5639 5638 5637 5635 5634 5632 5630 5628 5626 5625 5623 5622 5620 5617 5615 5614 5611 5609 5606 5604 5601 5600 5597 5593 5590 5588 5588 5588 5586 5584 5581 5579 5577 5576 5575 5573 5573
5634 5634 5632 5631 5629 5627 5626 5625 5622 5620 5619 5617 5615 5613 5611 5609 5608 5605 5602 5599 5597 5594 5592 5589 5585 5582 5581 5580 5579 5577 5576 5574 5572 5571 5569 5567 5565 5564